Showing default

COSMOS 1995, 19786

Orbit data source: Space-Track

COSMOS 1995, 19786 is a payload satellite owned by UNKS (CIS) in LEO that was launched on Fri, 10 Feb 1989 UTC via a TSIKLON-3 launch vehicle from the Plesetsk Missile And Space Complex (PKMTR). Payload-class satellites include a variety of spacecraft equipped with specific instruments for various scientific and technological missions. These include communications satellites like Starlink; space stations such as the ISS; scientific satellites like the Hubble; Earth observation satellites from companies like Planet Labs, Umbra, and HawkEye 360; GPS; miniature CubeSats for education and research; and military/defense satellites.

Loading next visibility...
Identifier
19786, 1989-009B
Orbit
LEO
Country
Flag of CISCIS
Related business
Manufacturer
NPO PM
Mission
Defense Communications
Bus & Motor
STRELA-3, Unknown motor
Mass
225 kg wet, 225 kg dry
Launch date (UTC)
1989-02-10 (37 years ago)
Launch vehicle
TSIKLON-3
Launch site
Plesetsk Missile And Space Complex (PKMTR)
Object type
Payload
Rocket body
Debris
Shape & HBR
Cyl, 0.8 m
Radar Cross Section
1.257 m², Large (>1 m²)

Expand to show TLE details & history
Last TLE update: 8 hours ago

TLE from 8 hours ago
0 COSMOS 1995
1 19786U 89009B   25260.90833926  .00000013  00000-0  12931-4 0  9996
2 19786  82.6256 201.4179 0004273  33.8612  29.0222 12.62224445685991
Epoch: 2025-09-17T21:48Z
TLE epoch observation values (Epoch: 2025-09-17T21:48:00.512Z)
Latitude
62.08048°
Longitude
-108.59628°
Altitude
1,421.466 km
Speed
7.157 km/s
True Right ascension
14h 21m 56s
True Declination
61° 57' 00"
Sunlit
Object was in daylight at epoch
Visualization orbit readout
Latitude
Unknown
Longitude
Unknown
Altitude
Unknown
Speed
Unknown
Apparent Right ascension
Unknown
Apparent Declination
Unknown
Sunlit
N/A
Visualization observer readout
Local Sidereal Time
22:18:18
Azimuth
Unknown
Elevation
Unknown
Doppler factor
Unknown
Orbital elements
Apogee altitude
1,414.424 km
Perigee altitude
1,407.767 km
Semi-major axis
7,789.232 km
Eccentricity
0.00043
Inclination
82.6256°
RAAN
201.4179°
Arg. of periapsis
33.8612°
True anomaly
29.04597°
Mean anomaly
29.0222°
Eccentric anomaly
29.03408°
Mean motion
3.15719 °/min
Orbital period
114.03 mins
BSTAR
0.000012931
Loading maneuver chart data...
Computing Atmospheric mass density...
Loading historical data...
Loading historical data...
Loading historical data...
Loading historical data...
Loading historical data...
Loading historical data...
Loading historical data...

Documentation

Showing up to 5 results
|